Weather in Vorovskolesskaya

Russia / Stavropol Krai     44°22′37″N   42°24′27″E
temp.,
°C
wind,
m/s
gust,
m/s
humid.,
%
clouds,
%
prec.,
mm/h
press.,
hPa
HPBL,
m
17 april, sat
sat1700:00+9e1195100 0.4 101915
03:00+9wsw1192100 0.4 101913
06:00+9wnw2495100 0.0 1019137
09:00+10nw5890100 0.1 1021645
12:00+10nw4782100 0.1 1022749
15:00+9nw3484100 0.2 1023508
18:00+8nnw1294100 2.2 1023175
21:00+7e1195100 2.6 102361
18 april, sun
sun1800:00+7ese2396100 0.0 102295
03:00+6ese3697100 0.1 1021157
06:00+7e4999100 0.0 1020313
09:00+10ese5887100 0.0 1019560
12:00+13ese5677100 0.1 1017614
15:00+16ese447074 0.1 1017712
18:00+14ese468512 0.7 1017422
21:00+11se4997100 1.8 1018209
19 april, mon
mon1900:00+10sse2296100 0.4 101728
03:00+10se3395100 0.4 101745
06:00+11sse2290100 0.1 101631
09:00+14e1182100 0.9 1016110
12:00+19e4461100 0.2 1014827
15:00+20e4659100 0.2 1013983
18:00+18ese4971100 0.0 1012264
21:00+14ese41088100 1.0 1012223
20 april, tue
tue2000:00+13se4989100 0.0 1010169
03:00+12ese41087100 0.0 1007198
06:00+11ese51088100 0.1 1006210
09:00+16se61074100 0.1 1004267
12:00+18e5664100 0.0 1003315
15:00+18nw7980100 0.4 1007816
18:00+12nw61179100 0.9 1012828
21:00+10wnw51075100 1.2 1015709
21 april, wed
wed2100:00+10s1186100 0.5 1016381
03:00+9sse3495100 6.1 1017242
06:00+9ene2395100 3.0 1019201
09:00+9ne3696100 5.3 1020457
12:00+8nne3595100 6.4 1021368
15:00+8ne2395100 9.1 1022287
18:00+8e2395100 1.5 1022263
21:00+7se3697100 5.3 1023245